Regional Weather Roundup
Issued by NWS

Home | Current Version | Previous Version | Text Only | Print | Product List | Glossary On
Versions: 1 2 3 4 5 6 7 8 9 10 11 12 13 14 15 16 17 18 19 20 21 22 23 24 25 26 27 28 29 30 31 32 33 34 35 36 37 38 39 40 41 42 43 44 45 46 47 48 49 50
000
ASUS43 KOAX 050910
RWRNE

WEATHER ROUNDUP FOR NEBRASKA
NATIONAL WEATHER SERVICE OMAHA NE
400 AM CDT WED AUG 05 2015

NOTES: SATELLITE DATA IS BEING USED TO AUGMENT CLOUD COVER ABOVE
       12000 FEET.
       "FAIR" INDICATES FEW OR NO CLOUDS BELOW 12,000 FEET WITH NO
       SIGNIFICANT WEATHER AND/OR OBSTRUCTIONS TO VISIBILITY.

  * THESE STATIONS DO NOT REPORT WEATHER SUCH AS RAIN...SNOW OR FOG.

NEZ001>004-019>022-054>056-051000-
NEBRASKA PANHANDLE

CITY           SKY/WX    TMP DP  RH WIND       PRES   REMARKS
SCOTTSBLUFF    FOG       61  60  97 CALM      30.07R VSB 1/4
ALLIANCE       FOG       57  56  96 CALM      30.06S VSB 3/4
CHADRON        CLEAR     60  58  92 CALM      30.02S
KIMBALL        CLEAR     55  53  94 W7        30.11S
SIDNEY         CLEAR     52  52 100 SW5       30.10S FOG
$$

NEZ057>060-069>072-079>082-051000-
SOUTHWEST NEBRASKA

CITY           SKY/WX    TMP DP  RH WIND       PRES   REMARKS
NORTH PLATTE   CLOUDY    59  58  96 E5        30.03S FOG
IMPERIAL       CLEAR     60  58  92 NW3       30.04S
LEXINGTON      CLOUDY    65  64  95 CALM      30.01S FOG
MCCOOK         CLEAR     59  58  96 CALM      30.01R FOG
OGALLALA       CLEAR     59  59  99 CALM      30.04S FOG
$$

NEZ005>010-023>029-035>040-094-051000-
NORTH CENTRAL NEBRASKA

CITY           SKY/WX    TMP DP  RH WIND       PRES   REMARKS
AINSWORTH      MOCLDY    65  65  99 CALM      30.03S
BROKEN BOW     FOG       65  64  97 SE5       30.01F VSB 1/4
O`NEILL        CLOUDY    66  65  96 SE5       30.01F
ORD            MOCLDY    63  62  97 CALM      29.99F
THEDFORD       MOCLDY    60  59  98 CALM      30.04S FOG
$$

NEZ041-046>049-061>064-073>077-083>087-051000-
SOUTH CENTRAL NEBRASKA

CITY           SKY/WX    TMP DP  RH WIND       PRES   REMARKS
GRAND ISLAND   CLOUDY    65  63  93 NE3       30.00R
AURORA         CLOUDY    67  67 100 CALM      29.99R
HASTINGS       MOCLDY    65  63  93 CALM      29.99R
HEBRON         CLOUDY    67  64  90 CALM      29.98R
HOLDREGE       PTCLDY    60  59  96 N3        30.00S FOG
KEARNEY *      MOCLDY    63  61  94 NW6       30.00R
YORK           LGT RAIN  66  66 100 CALM      29.99R
$$

NEZ011>018-030>034-042>045-051000-
NORTHEAST NEBRASKA

CITY           SKY/WX    TMP DP  RH WIND       PRES   REMARKS
NORFOLK        CLOUDY    68  64  87 E5        29.99S
ALBION         CLOUDY    67  65  94 E3        30.00S FOG
BLAIR          MOCLDY    66  64  93 E5        29.98F
COLUMBUS *     CLOUDY    68  63  83 E5        29.99S
FREMONT        CLOUDY    68  65  92 E3        29.99S
TEKAMAH        MOCLDY    66  64  93 CALM      29.98F
WAYNE          CLOUDY    65  64  95 CALM      30.00S
$$

NEZ050>053-065>068-078-088>093-051000-
SOUTHEAST NEBRASKA

CITY           SKY/WX    TMP DP  RH WIND       PRES   REMARKS
LINCOLN        CLOUDY    73  69  87 SE12      29.97S
OMAHA EPPLEY   MOCLDY    67  66  97 SE10      29.98F
BEATRICE       CLOUDY    69  68  96 SE5       29.97F
FALLS CITY     CLOUDY    69  68  96 E7        29.97F FOG
NEBRASKA CITY  CLOUDY    68  68  98 SE5       29.99S
PLATTSMOUTH    CLOUDY    69  67  94 SE7       29.98F
$$

NEZ044-045-051>053-067-051000-
OMAHA AREA

CITY           SKY/WX    TMP DP  RH WIND       PRES   REMARKS
OMAHA EPPLEY   MOCLDY    67  66  97 SE10      29.98F
BLAIR          MOCLDY    66  64  93 E5        29.98F
FREMONT        CLOUDY    68  65  92 E3        29.99S
MILLARD        CLOUDY    69  67  92 E3        29.97F
OFFUTT AFB     CLOUDY    68  67  96 E8        29.97F
PLATTSMOUTH    CLOUDY    69  67  94 SE7       29.98F
WAHOO          CLOUDY    69  67  94 E5        29.97F
$$


USA.gov is the U.S. government's official web portal to all federal, state and local government web resources and services.